www.pogodaiklimat.ru

Погода и климат >> Архив погоды >> Саудовская Аравия >> Эль-Ваджх


ПОГОДА в Эль-Ваджхе

  • Прогноз погоды в Эль-Ваджхе
  • Монитор погоды в Эль-Ваджхе

АРХИВ ПОГОДЫ в Эль-Ваджхе

Время (UTC), дата Ветер
(напр.,м/с)
 
Видим.   Явления Облачность Т
(С)
Тd
(С)
f
(%)
Тe
(С)
Тes
(С)
Комфортность P
(гПа)
Po
(гПа)
Тmin
(С)
Tmax
(С)
R
(мм)
R24
(мм)
S
(см)
18 15.03 С 2 10 км ясно +19.4 +13.0 66 +21 +21 комфорт 1014.1 1011.3 +25.6
21 15.03 СВ 3 10 км ясно +18.2 +8.0 51 +19 +19 1014.1 1011.3
00 16.03 С 2 10 км ясно +16.5 +7.0 53 +17 +17 1013.0 1010.2
03 16.03 С 2 10 км ясно +15.8 +6.0 52 +16 +16 1013.5 1010.7
06 16.03 С 3 10 км 3/3 900 м
[Sc]
+21.4 +10.0 48 +23 +27 комфорт 1014.9 1012.1 +15.0
09 16.03 З 7 10 км 3/3 900 м
[Sc]
+25.6 +11.0 40 +27 +30 жарко 1015.1 1012.3
12 16.03 СЗ 7 10 км 3/3 900 м
[Sc]
+25.0 +10.0 39 +26 +28 жарко 1013.6 1010.8
15 16.03 СЗ 7 10 км ясно +22.4 +10.0 45 +24 +24 комфорт 1014.3 1011.5
18 16.03 С 2 10 км ясно +20.4 +7.0 42 +22 +22 комфорт 1015.7 1012.9 +26.0
21 16.03 СЗ 10 10 км ясно +21.0 +9.0 46 +22 +22 комфорт 1016.2 1013.4
00 17.03 СЗ 10 10 км ясно +20.4 +9.0 48 +21 +21 комфорт 1015.8 1013.0
03 17.03 С 3 10 км ясно +18.8 +7.0 46 +19 +19 1016.4 1013.6
06 17.03 С 4 10 км ясно +20.6 +8.0 44 +22 +27 комфорт 1018.8 1016.0 +17.6
09 17.03 З 7 10 км 3/3 1200 м
[Sc]
+23.4 +9.0 40 +25 +28 комфорт 1019.4 1016.6
12 17.03 СЗ 10 10 км ясно +24.2 +10.0 41 +25 +26 комфорт 1017.7 1014.9
15 17.03 СЗ 10 10 км ясно +21.4 +10.0 48 +23 +23 комфорт 1017.3 1014.5
18 17.03 СЗ 4 10 км ясно +19.2 +9.0 52 +20 +20 1018.3 1015.5 +25.0
21 17.03 С 3 10 км ясно +18.2 +10.0 59 +19 +19 1017.9 1015.1
00 18.03 С 2 10 км ясно +16.5 +8.0 57 +17 +17 1016.7 1013.9
03 18.03 штиль 0 10 км ясно +15.6 +6.0 53 +16 +16 1016.1 1013.3
06 18.03 ЮВ 2 10 км ясно +18.2 +8.0 51 +19 +25 1017.9 1015.1 +14.0
09 18.03 З 3 10 км ясно +24.4 +11.0 43 +26 +42 жарко 1017.8 1015.0
12 18.03 СЗ 8 10 км ясно +26.4 +16.0 53 +30 +32 душно 1015.2 1012.4
15 18.03 СЗ 8 10 км ясно +24.8 +14.0 51 +27 +27 жарко 1014.0 1011.2
18 18.03 СЗ 7 10 км ясно +22.4 +15.0 63 +26 +26 жарко 1014.9 1012.1 +26.8
21 18.03 С 3 10 км ясно +20.0 +10.0 53 +22 +22 комфорт 1014.7 1011.9
00 19.03 С 3 10 км ясно +18.2 +9.0 55 +18 +18 1013.0 1010.2
03 19.03 С 3 10 км 3/0
[Ci fib]
+17.6 +8.0 53 +18 +18 1012.0 1009.2
06 19.03 СЗ 2 10 км 4/4 900 м
[Cu hum]
+21.6 +9.0 44 +23 +27 комфорт 1012.8 1010.0 +17.2
09 19.03 З 5 10 км 3/3 1200 м
[Cu hum]
+26.0 +16.0 54 +29 +36 душно 1011.6 1008.8
12 19.03 З 9 10 км 5/3 1200 м
[Cu hum Ci sp]
+25.4 +19.0 68 +30 +31 душно 1010.5 1007.7
15 19.03 СЗ 7 10 км 3/3 1200 м
[Cu hum]
+25.0 +18.0 65 +29 +29 душно 1010.2 1007.4
18 19.03 СЗ 5 10 км 3/0
[Ci fib]
+22.8 +17.0 70 +28 +28 душно 1010.7 1008.0 +27.4
21 19.03 С 2 10 км ясно +21.2 +15.0 68 +24 +24 комфорт 1011.1 1008.3
00 20.03 СЗ 3 10 км 3/3 1200 м
[Sc]
+20.4 +15.0 71 +23 +23 комфорт 1009.9 1007.1
03 20.03 С 2 10 км 3/3 1200 м
[Sc]
+17.4 +10.0 62 +18 +18 1009.5 1006.7
06 20.03 С 3 10 км 3/3 1200 м
[Sc]
+20.6 +14.0 66 +23 +27 комфорт 1010.8 1008.0 +17.0
09 20.03 З 5 10 км 3/0
[Ci sp]
+25.0 +19.0 69 +30 +40 душно 1011.2 1008.4
12 20.03 З 8 10 км ясно +26.6 +19.0 63 +32 +34 очень
душно
1009.6 1006.8
15 20.03 СЗ 7 10 км 3/0
[Ci fib]
+24.8 +19.0 70 +30 +30 душно 1009.5 1006.7
18 20.03 СЗ 3 10 км 3/0
[Ci fib]
+22.6 +18.0 75 +28 +28 душно 1010.3 1007.5 +27.0
21 20.03 З 4 10 км ясно +20.2 +15.0 72 +23 +23 комфорт 1010.5 1007.7
00 21.03 З 5 10 км 3/3 1200 м
[Cu hum]
+21.0 +18.0 83 +25 +25 комфорт 1009.2 1006.5
03 21.03 СВ 2 8000 м дымка 3/3 1200 м
[Cu hum]
+17.8 +17.0 95 +18 +18 1009.4 1006.6
06 21.03 С 2 10 км 1/1 1200 м
[Sc]
+21.6 +19.0 85 +26 +32 душно 1011.2 1008.4 +17.0
09 21.03 З 4 10 км ясно +25.0 +18.0 65 +29 +43 душно 1011.8 1009.0
12 21.03 СЗ 9 10 км 3/0
[Ci sp]
+25.5 +17.0 59 +29 +31 душно 1010.3 1007.5
15 21.03 СЗ 6 10 км 5/0
[Ci fib]
+24.0 +15.0 57 +27 +27 жарко 1010.1 1007.3
18 21.03 С 2 10 км 4/0
[Ci fib]
+21.2 +16.0 72 +25 +25 комфорт 1011.0 1008.2 +27.0
21 21.03 З 4 10 км 5/0
[Ci sp]
+22.0 +16.0 69 +26 +26 душно 1011.9 1009.1
00 22.03 СВ 2 10 км 5/0
[Ci sp]
+19.8 +16.0 79 +23 +23 комфорт 1011.3 1008.5
03 22.03 В 3 10 км 3/0
[Ci fib]
+18.0 +15.0 83 +18 +18 1011.8 1009.0
06 22.03 ЮВ 4 10 км ясно +21.4 +16.0 71 +25 +30 комфорт 1013.0 1010.2 +17.0
09 22.03 ЮЗ 4 10 км ясно +24.2 +16.0 60 +27 +39 жарко 1013.0 1010.2
12 22.03 З 8 10 км 1/1 900 м
[Sc]
+24.5 +19.0 71 +29 +32 душно 1011.0 1008.2
15 22.03 СЗ 7 10 км 3/0
[Ci fib]
+23.0 +15.0 61 +27 +27 душно 1010.5 1007.7

 

Местоположение метеостанции Эль-Ваджх (Саудовская Аравия): широта 26.20 долгота 36.48 высота над уровнем моря 24 м.

В архиве по умолчанию представлена погода в Эль-Ваджхе за последнюю неделю. Архивные данные за месяц целиком и за предыдущие месяцы, начиная с января 2011 года, Вы можете получить, выбрав интересующий диапазон дат из раскрывающегося списка и нажав кнопку "Ввод!".


*Определитесь, кто Вы:
робот инопланетянин человек

Внимание! Время в таблицах - всемирное. Для получения местного времени необходимо прибавить поправку, которая равна 3 ч.

Смотрите также архив погоды в соседних городах и на ближайших метеорологических станциях:

Погода в Аль-Уле (Саудовская Аравия) (166 км)
Погода в Эль-Кусейре (Египет) (233 км)
Погода в Табуке (Саудовская Аравия) (243 км)
Погода в Янбу (Саудовская Аравия) (280 км)
Погода в Хургаде (Египет) (294 км)
Погода в Шалатейне (Египет) (353 км)
Погода в Эль-Торе (Египет) (362 км)
Погода в Медине (Саудовская Аравия) (372 км)
Погода в Университете South Of Valley (Египет) (372 км)
Погода в Луксоре (Египет) (383 км)

Пояснения к столбцам:

Ветер - указаны скорость ветра в м/с - средняя за 10 мин, порывы в срок и между сроками (в фигурных скобках) и направление, откуда дует ветер: С - северный, СВ - северо-восточный, В - восточный, ЮВ - юго-восточный, Ю - южный, ЮЗ - юго-западный, З - западный, СЗ - северо-западный.
Видимость - горизонтальная дальность видимости в метрах или километрах. При видимости от 1 до 10 км при отсутствии осадков обычно наблюдается дымка, при ухудшении видимости до 1 км и менее - туман. В сухую погоду видимость может ухудшаться дымом, пылью или мглою.
Явления - указаны атмосферные явления, наблюдавшиеся в срок или в последний час перед сроком; фигурными скобками обозначены явления, наблюдавшиеся между сроками (за 1-3 часа до срока); квадратными скобками обозначены град или гололедные отложения с указанием их диаметра в мм.
Облачность - указаны через наклонную черту общая и нижняя облачность в баллах и высота нижней границы облаков в метрах; квадратными скобками обозначены формы облаков: Ci - перистые, Cs - перисто-слоистые, Cc - перисто-кучевые, Ac - высококучевые, As - высокослоистые, Sc - слоисто-кучевые, Ns - слоисто-дождевые, Cu - кучевые, Cb - кучево-дождевые. Подробнее классификацию облаков см. в Атласе облаков (PDF).
T - Температура воздуха - температура, измеренная на высоте 2 м над землей.
Td - Температура точки росы - температура, при понижении до которой содержащийся в воздухе водяной пар достигнет насыщения.
f - Относительная влажность воздуха - влажноcть воздуха, измеренная на высоте 2 м над землей.
Te - Эффективная температура - температура, которую ощущает одетый по сезону человек в тени. Характеристика душности погоды. При расчете учитывается влияние влажности воздуха и скорости ветра на теплоощущения человека.
Tes - Эффективная температура на солнце - температура, которую ощущает человек, с поправкой на солнечный нагрев. Характеристика знойности погоды. Зависит от высоты солнца над горизонтом, облачности и скорости ветра. Ночью, в пасмурную погоду, а также при ветре 12 м/с и более поправка равна нулю.
P - Атмосферное давление - приведенное к уровню моря атмосферное давление.
Po - Атмосферное давление - измеренное на уровне метеостанции атмосферное давление.
Tmin - Минимальная температура - минимум температуры воздуха на высоте 2 м над землей.
Tmax - Максимальная температура - максимум температуры воздуха на высоте 2 м над землей.
R - Количество осадков - Количество выпавших осадков за период времени, мм. При наведении курсора мыши на число - период времени, за который выпало указанное количество осадков.
R24 - Количество осадков - Количество выпавших осадков за 24 часа, мм.
S - Снежный покров - Высота снежного покрова, см. При наведении курсора мыши на число - состояние снежного покрова и степень покрытия местности в баллах.